CST,Max TemperatureF,Mean TemperatureF,Min TemperatureF,Max Dew PointF,MeanDew PointF,Min DewpointF,Max Humidity, Mean Humidity, Min Humidity, Max Sea Level PressureIn, Mean Sea Level PressureIn, Min Sea Level PressureIn, Max VisibilityMiles, Mean VisibilityMiles, Min VisibilityMiles, Max Wind SpeedMPH, Mean Wind SpeedMPH, Max Gust SpeedMPH,PrecipitationIn, CloudCover, Events, WindDirDegrees
2012-11-1,80,66,51,52,48,43,82,57,37,30.04,29.99,29.94,10,9,2,13,4,,0.00,0,,139
2012-11-2,87,70,53,61,54,50,88,59,35,29.95,29.91,29.85,10,10,10,22,7,30,0.00,0,,200
2012-11-3,71,60,48,55,44,41,76,58,35,30.18,30.11,29.96,10,10,10,13,7,16,0.00,0,,359
2012-11-4,71,56,42,46,43,39,93,63,35,30.22,30.15,30.07,10,10,4,8,2,,0.00,0,,86
2012-11-5,68,55,42,52,44,37,88,64,40,30.15,30.10,30.05,10,10,10,22,8,30,0.00,0,,333
2012-11-6,73,55,37,46,41,37,100,64,38,30.17,30.12,30.06,10,10,10,13,3,17,0.00,0,,303
2012-11-7,71,56,41,41,36,34,81,51,28,30.22,30.15,30.08,10,10,7,12,2,,0.00,0,,109
2012-11-8,80,66,53,61,48,36,73,52,41,30.08,29.98,29.89,10,10,10,26,14,32,0.00,0,,167
2012-11-9,80,70,59,64,62,59,100,72,57,29.96,29.90,29.84,10,10,10,25,16,32,0.00,1,,180
2012-11-10,78,71,64,64,61,59,94,69,54,29.94,29.85,29.74,10,10,10,31,19,39,0.00,2,,176
2012-11-11,71,53,33,64,47,32,100,89,69,30.31,29.99,29.71,10,9,2,22,15,33,0.62,5,Rain-Thunderstorm,336
2012-11-12,55,42,30,32,31,27,100,69,38,30.51,30.45,30.32,10,10,10,7,3,,0.00,0,,259
2012-11-13,59,46,33,34,31,28,87,55,31,30.50,30.43,30.32,10,10,10,10,4,9,0.00,0,,181
2012-11-14,62,50,37,36,33,30,81,56,34,30.42,30.34,30.27,10,10,10,15,7,20,0.00,0,,171
2012-11-15,66,54,41,39,35,32,76,54,37,30.38,30.29,30.25,10,10,10,15,8,20,0.00,0,,155
2012-11-16,66,50,35,43,37,34,100,62,34,30.44,30.39,30.35,10,10,10,12,2,,0.00,0,,112
2012-11-17,64,52,41,36,34,32,81,55,32,30.41,30.34,30.28,10,10,10,15,6,17,0.00,0,,164
2012-11-18,64,56,48,45,39,34,59,51,42,30.29,30.22,30.16,10,10,10,18,12,25,0.00,3,Rain,163
2012-11-19,77,66,55,59,51,45,94,65,50,30.17,30.15,30.10,10,10,7,17,10,23,0.00,2,,180
2012-11-20,77,62,48,61,53,46,100,75,41,30.26,30.21,30.16,10,8,0,8,1,,0.00,0,Fog,18
2012-11-21,78,61,44,54,48,43,100,64,32,30.27,30.19,30.07,10,10,10,17,6,23,0.00,0,,168
2012-11-22,78,70,62,59,54,45,78,62,50,30.23,30.04,29.94,10,10,10,24,13,32,0.00,1,Rain,187
2012-11-23,60,48,35,45,33,27,71,53,36,30.52,30.44,30.24,10,10,10,23,14,30,0.00,2,,6
2012-11-24,62,46,30,32,29,27,93,54,30,30.46,30.25,30.03,10,10,10,16,5,21,0.00,0,,188
2012-11-25,71,56,42,45,37,30,72,48,35,30.02,29.90,29.83,10,10,10,14,10,18,0.00,0,,170
2012-11-26,51,45,39,45,38,30,100,73,54,30.38,30.07,29.85,10,10,10,23,8,30,0.00,3,,16
2012-11-27,53,42,30,34,32,30,100,73,44,30.49,30.38,30.31,10,9,5,14,7,20,0.00,0,,55
2012-11-28,62,48,33,43,37,32,93,68,45,30.41,30.31,30.20,10,10,4,15,7,21,0.00,0,,159
2012-11-29,71,58,44,46,40,36,81,56,31,30.21,30.12,30.02,10,10,10,22,13,29,0.00,0,,174
2012-11-30,71,61,51,61,55,45,100,85,64,30.11,30.04,29.99,10,8,4,17,11,23,0.00,1,,159